Simultaneous Nadir Overpasses (SNOs) Predictions

Prediction of SNOs between NOAA-20 and NOAA-19 Satellite Orbit:

Table of predicted SNOs for the next 14.0 days since TLE Epoch: 6/28/2019
Index Date (NOAA-20) Time (NOAA-20) Lat,Lon (NOAA-20) SZA (NOAA-20 ) Date (NOAA-19) Time (NOAA-19) Lat,Lon (NOAA-19) SZA (NOAA-19 ) Distance(km) Time Diff (sec)
1 07/11/2019 21:49:20 -80.00, -6.09 119.56 07/11/2019 21:48:20 -80.02, -6.04 119.52 1.98 60
2 07/11/2019 22:40:06 80.03, 160.96 60.50 07/11/2019 22:39:17 80.00, 161.03 60.50 3.10 49
3 07/11/2019 23:30:50 -80.01, -31.50 119.54 07/11/2019 23:30:21 -80.01, -31.60 119.51 2.05 29
4 07/12/2019 00:21:35 80.00, 135.84 60.46 07/12/2019 00:21:17 80.02, 135.79 60.49 2.42 18
5 07/12/2019 01:12:20 -80.01, -56.92 119.52 07/12/2019 01:12:21 -80.03, -56.85 119.52 2.78 1
6 07/12/2019 02:03:06 80.04, 110.13 60.54 07/12/2019 02:03:18 80.02, 110.23 60.50 2.80 12
7 07/12/2019 02:53:50 -80.01, -82.33 119.51 07/12/2019 02:54:22 -80.03, -82.41 119.50 2.13 32
8 07/12/2019 03:44:36 80.04, 84.71 60.55 07/12/2019 03:45:19 80.01, 84.67 60.52 2.97 43
9 07/12/2019 04:35:21 -80.05,-108.05 119.43 07/12/2019 04:36:23 -80.02,-107.98 119.49 3.01 62




NCC Satellite Simultaneous Nadir Overpasses (SNOs) Prediction Service
